Dewpoint
52 52 52 52 53 53 53 53 53 53 53 53 53 53 53 53 53 53 52 53 53 53 54 54 54 52 50 38 35 41 43 40 40 40 39 38 34 35 27 29 30 29 29 30 30 30 29
52 51 52 52 53 54 54 54 54 53 53 53 53 53 53 53 53 53 52 52 52 53 54 54 52 51 47 28 38 40 40 39 40 39 38 40 38 38 35 31 30 31 31 31 31 29 27
52 52 53 53 54 54 54 54 55 54 53 53 54 54 53 53 53 53 52 50 52 52 53 51 51 48 39 36 40 41 39 39 40 40 39 40 42 40 37 32 32 31 29 27 26 27 27
54 54 55 55 55 55 55 55 55 55 54 54 54 54 54 53 53 54 53 50 51 53 52 51 51 47 34 40 43 38 37 37 40 41 40 43 43 42 38 33 31 26 25 21 25 27 29
56 56 56 56 56 56 56 55 55 55 54 53 52 54 53 53 54 54 53 50 51 53 53 52 50 43 35 42 37 36 38 37 39 39 41 40 41 36 33 28 24 24 15 17 20 27 26
57 57 56 54 53 53 53 52 52 52 51 51 52 52 52 54 54 53 50 51 49 52 52 46 45 40 34 33 36 37 39 40 38 37 38 37 35 33 28 22 19 17 19 20 21 23 26
55 54 53 53 52 50 51 51 51 50 49 49 50 52 51 53 53 51 48 44 37 39 37 33 34 31 32 36 38 38 40 39 37 35 29 32 31 25 23 25 25 25 24 22 21 25 25
53 52 52 51 51 51 50 50 49 48 47 47 48 50 50 50 51 50 42 39 43 44 37 35 36 37 36 38 34 37 40 35 32 28 29 29 29 28 28 28 27 26 23 20 18 23 26
50 49 48 48 50 49 49 48 46 46 47 48 48 48 49 50 50 47 42 43 46 44 38 33 33 36 37 38 33 36 38 36 32 29 27 26 27 28 27 26 22 21 21 23 23 26 27
47 46 46 47 48 46 46 46 46 46 47 48 48 49 49 49 46 44 41 44 46 45 36 29 34 37 38 37 35 38 40 37 33 28 30 28 29 27 27 26 25 19 27 26 26 27 24
45 44 46 47 46 46 46 46 47 47 47 47 47 47 49 49 45 42 43 45 45 44 11 26 33 40 37 35 34 39 41 39 31 30 29 28 26 28 27 26 27 22 30 29 28 27 25
44 45 46 45 46 46 46 47 47 47 47 48 48 47 49 42 44 45 45 45 44 34 14 22 28 27 28 32 31 35 38 39 37 33 31 30 33 31 30 30 30 31 31 30 29 27 25
45 45 45 46 46 46 46 47 46 46 46 47 48 49 48 44 38 44 47 43 32 19 17 20 22 23 23 21 22 28 28 27 25 22 26 27 27 30 31 28 33 30 26 22 21 25 19
46 45 45 45 46 46 46 46 45 45 44 46 47 48 46 43 47 47 45 34 12 17 15 23 23 21 19 20 21 22 21 22 28 26 22 23 18 23 31 27 25 27 26 17 5 16 17
46 45 45 45 46 46 46 45 44 43 43 46 46 43 43 46 48 46 40 23 18 17 25 25 20 15 13 20 19 15 16 17 24 27 21 20 21 26 27 29 28 27 26 25 22 23 21
46 46 46 45 46 46 44 43 42 41 42 45 42 41 42 46 47 44 32 21 16 22 26 23 12 11 9 13 13 12 9 21 25 30 30 23 19 24 30 31 31 30 30 24 25 18 15
46 46 46 46 46 44 42 42 41 41 42 46 43 34 44 46 46 38 27 24 21 25 29 26 21 18 15 14 16 14 10 22 23 28 29 26 22 22 24 24 26 30 26 26 21 19 19
46 46 47 47 46 42 41 41 41 40 43 41 38 31 43 45 37 29 27 28 31 29 30 28 27 24 22 21 19 17 15 23 26 27 24 26 23 20 18 22 23 22 19 18 16 17 21
47 47 47 47 43 41 40 39 41 41 42 41 33 30 41 42 27 28 30 28 30 28 28 27 27 28 28 25 21 19 21 26 27 26 26 25 22 18 17 24 25 23 21 21 21 20 19
48 47 46 45 42 40 39 40 40 41 41 42 35 26 33 34 31 27 25 24 25 30 29 29 28 27 26 23 23 22 20 27 27 27 29 28 23 20 16 17 21 20 21 22 20 18 18
47 46 45 43 42 40 39 40 39 41 41 41 32 30 32 25 29 28 28 27 25 24 29 29 28 29 28 26 25 24 28 28 27 28 27 28 24 23 23 22 23 22 22 22 22 21 19
46 45 43 41 40 39 39 39 39 41 41 39 34 30 31 27 24 25 26 21 24 26 26 26 28 29 27 28 26 27 27 28 27 26 26 27 24 24 23 23 21 20 20 20 20 20 20
46 44 42 41 40 39 40 40 40 41 41 33 37 35 32 23 19 22 23 27 29 27 30 31 30 26 22 22 23 25 25 26 27 26 25 24 24 23 20 20 20 15 16 15 16 18 19
46 44 42 41 42 40 41 41 41 41 40 37 37 35 26 16 18 15 18 25 25 25 23 22 21 18 18 21 21 20 18 17 18 22 26 23 22 23 22 20 12 12 15 16 16 16 18
46 44 43 42 43 41 41 41 41 41 42 39 39 35 26 20 19 19 19 19 18 18 18 19 20 21 22 21 17 13 9 12 11 13 15 20 22 19 17 16 15 12 14 16 15 19 22
46 45 45 42 42 42 43 42 41 40 41 42 39 41 33 28 22 23 21 22 21 20 18 19 22 23 25 24 18 12 6 8 7 21 25 24 20 18 16 13 9 16 20 21 20 17 24
45 45 44 43 41 42 43 42 41 40 40 42 40 41 37 29 29 28 23 24 23 22 21 20 20 20 21 16 13 12 12 12 9 10 22 22 22 18 15 14 15 21 21 22 14 21 24
43 43 42 41 42 42 41 41 42 43 41 42 40 42 37 33 33 32 30 27 27 25 22 20 18 19 19 17 15 13 15 20 20 17 18 18 20 20 21 19 17 23 23 22 23 26 25
43 42 43 43 41 42 42 42 43 44 44 42 38 40 39 34 31 32 32 32 31 30 28 25 20 22 20 20 22 24 20 18 17 14 13 15 19 23 27 21 24 24 23 22 21 24 26
Wind_Speed
7 8 10 11 12 13 15 16 16 17 17 19 20 22 23 24 25 27 27 23 20 19 18 16 13 11 7 4 5 4 6 7 6 12 12 12 12 7 6 6 5 2 8 8 9 10 11
7 8 10 11 12 13 14 15 16 17 18 19 21 22 23 25 27 27 27 24 22 19 13 11 8 10 4 1 2 4 6 7 9 10 8 11 7 5 5 4 4 7 9 12 6 8 7
7 8 9 10 12 13 14 15 15 16 18 20 22 23 24 25 28 29 28 25 23 14 9 6 5 5 3 3 2 6 3 3 6 7 9 7 8 7 6 4 4 6 7 9 8 2 4
7 8 10 11 12 12 13 15 15 16 17 20 22 23 25 25 27 29 29 25 17 7 5 4 4 4 2 1 8 3 10 4 2 2 5 4 6 7 3 7 5 4 4 3 8 5 3
7 9 10 13 16 14 14 16 19 18 19 22 24 23 25 26 27 30 29 23 10 6 5 5 4 2 3 1 1 5 6 6 9 3 3 5 4 3 5 7 6 6 6 11 10 7 2
8 10 8 11 13 14 15 16 17 17 19 20 22 22 25 26 27 31 31 29 3 8 8 5 4 2 2 3 4 7 2 4 3 8 4 4 3 3 2 10 4 7 7 9 13 3 5
5 9 9 11 13 13 14 15 16 18 20 21 21 22 24 25 27 29 25 3 6 2 8 4 6 4 2 8 2 2 4 6 3 5 5 3 3 5 8 6 6 8 11 16 17 5 16
5 7 9 10 12 13 13 15 17 18 20 21 21 22 23 26 26 23 13 7 5 2 7 3 3 2 2 3 3 3 9 4 3 6 7 3 1 8 5 3 5 9 15 14 9 6 18
4 7 9 9 10 12 13 14 16 17 20 21 21 22 23 25 28 8 15 9 3 0 4 2 1 2 2 4 4 4 9 4 3 4 5 5 3 4 5 9 9 10 8 10 11 22 11
2 6 7 7 9 10 11 12 15 17 19 21 21 22 23 26 7 11 4 9 5 2 2 2 2 2 1 3 1 3 4 2 3 3 5 4 3 5 7 8 5 7 8 12 14 12 5
1 3 4 6 8 8 10 12 15 17 19 21 21 21 22 13 9 7 6 9 4 3 3 2 2 1 1 1 3 2 1 3 4 6 1 2 3 3 6 2 5 8 17 15 9 8 9
2 1 2 3 5 7 9 12 15 17 20 21 22 21 18 7 6 7 10 11 3 2 3 1 1 2 4 5 4 1 3 2 1 3 7 8 5 2 4 5 4 13 12 16 7 4 3
5 3 1 1 3 6 9 11 14 17 20 22 25 21 10 7 6 12 12 5 3 3 3 3 3 5 7 3 1 1 3 5 3 6 4 6 6 5 2 5 1 12 11 5 4 2 4
7 5 4 1 3 5 8 11 14 18 20 22 26 23 3 3 9 10 6 3 2 2 5 4 3 11 5 5 2 1 4 5 1 4 8 4 4 4 5 2 3 4 5 2 5 5 11
10 8 6 3 2 4 7 11 14 17 20 21 26 3 3 5 8 9 6 1 1 4 4 8 13 4 4 3 2 6 6 1 5 6 4 5 3 3 1 2 2 2 1 4 5 9 7
12 11 8 5 4 2 6 10 14 17 19 21 9 6 1 6 7 7 3 1 2 3 5 4 3 2 4 8 7 6 6 3 2 3 3 1 7 2 3 1 4 3 3 1 3 6 7
15 13 9 7 4 1 5 9 13 17 21 21 4 5 4 5 4 5 2 2 2 3 3 3 5 6 6 10 4 7 5 4 6 2 3 6 3 3 2 6 4 3 3 5 2 5 4
18 15 12 9 6 1 4 7 11 16 23 6 4 3 3 6 3 1 2 3 2 3 2 3 4 6 7 9 8 7 5 5 5 5 5 3 4 7 10 3 1 4 8 4 1 3 6
19 16 13 11 7 2 1 5 9 13 14 7 5 3 2 2 3 3 5 2 3 3 3 4 3 3 7 5 6 6 4 4 6 6 5 8 4 7 3 2 3 2 5 6 7 6 12
19 17 15 13 10 6 1 4 7 10 12 4 4 3 2 3 1 4 5 3 2 5 5 4 8 7 8 8 12 8 8 2 2 3 4 5 5 12 17 14 19 16 13 14 16 15 14
22 20 18 15 12 8 3 1 6 10 11 4 1 2 3 3 3 3 3 4 5 3 1 3 3 3 4 4 12 9 8 10 7 4 3 4 9 16 21 19 17 22 27 24 25 30 20
24 22 19 16 13 9 6 0 5 9 13 2 4 4 2 6 2 4 4 2 4 4 3 0 4 6 8 6 11 18 15 9 12 7 8 5 7 14 18 19 22 29 26 26 29 29 26
26 23 21 17 14 12 8 4 1 6 9 2 2 1 3 1 3 3 2 2 3 4 3 3 3 6 11 13 12 15 16 17 17 13 7 9 6 11 19 12 17 21 13 10 5 9 11
29 25 22 19 16 13 10 6 2 3 6 4 4 3 3 3 4 6 2 2 4 4 8 8 11 12 7 14 16 19 26 30 27 29 21 13 11 8 12 14 10 8 28 12 15 6 9
30 28 25 20 16 14 12 8 6 3 1 3 2 2 1 5 4 9 9 8 6 8 10 12 7 5 10 11 6 9 6 6 15 22 25 25 19 10 7 10 19 18 5 6 8 8 17
30 28 24 21 17 13 15 11 8 6 3 1 0 2 2 3 0 5 5 6 7 6 9 9 5 3 3 3 3 3 5 6 4 1 3 4 14 22 8 7 5 6 6 10 5 2 16
31 27 24 22 19 15 17 13 9 8 7 5 3 2 1 2 4 4 4 6 4 5 5 10 4 4 4 3 4 5 8 9 5 3 5 3 2 19 21 17 10 9 14 8 1 3 10
29 27 25 23 20 19 16 12 9 9 12 6 2 2 5 3 7 5 4 7 9 6 5 6 8 2 5 4 4 3 6 6 7 8 9 5 5 7 8 11 15 12 4 4 4 8 11
28 26 25 23 21 18 18 14 11 13 11 5 4 3 4 3 6 8 11 12 12 12 11 4 7 10 4 5 5 6 5 6 8 7 13 6 2 5 5 7 6 8 3 6 10 10 5
Wind_Direction
41 33 26 18 17 13 12 10 8 6 2 359 357 357 353 349 347 344 338 332 327 324 324 321 318 323 329 243 64 93 334 351 349 336 7 356 31 344 49 335 330 332 343 313 302 318 308
28 19 15 8 7 7 5 3 0 357 354 352 351 351 347 345 341 340 337 331 326 320 322 323 323 319 264 220 72 17 5 347 15 352 10 16 7 345 298 317 321 331 299 282 283 295 315
17 6 1 357 356 355 355 352 350 348 348 347 345 344 343 342 338 335 335 331 327 320 324 328 324 301 268 68 18 357 354 21 353 10 347 20 344 318 349 310 13 274 295 264 213 277 327
350 347 343 343 341 341 342 340 337 338 340 341 340 338 338 337 336 331 330 332 331 323 317 308 304 291 32 59 331 0 352 342 6 10 337 334 329 294 265 320 235 240 238 306 160 175 157
330 332 332 352 353 335 340 354 357 352 351 348 342 340 338 337 334 330 324 322 314 298 283 278 268 280 80 172 318 7 16 351 316 288 324 300 293 313 277 282 281 226 321 332 343 190 233
334 351 6 6 4 5 355 351 355 355 351 350 347 347 342 338 335 331 320 310 236 288 233 229 256 302 93 28 354 316 43 326 325 317 271 250 263 271 257 11 2 326 326 326 307 39 351
19 2 5 0 357 357 349 350 350 347 343 342 342 343 340 338 336 330 330 80 359 113 16 26 329 303 31 339 205 8 351 318 236 251 360 61 336 15 26 6 345 310 297 299 302 48 326
13 358 355 354 352 355 352 352 349 348 348 346 341 339 336 335 331 329 360 61 58 245 322 309 298 278 284 325 278 84 328 340 346 340 335 276 288 63 356 289 292 281 281 298 333 332 329
351 345 344 350 355 353 354 352 355 354 351 349 348 343 338 332 324 319 61 49 358 99 276 117 42 9 38 311 4 23 350 307 6 337 16 297 14 1 327 318 307 309 320 348 305 322 291
338 349 349 355 358 356 0 359 357 356 354 350 349 346 341 332 320 326 55 6 349 171 5 61 117 99 220 294 150 6 359 350 230 334 336 268 80 348 319 297 3 313 15 327 313 333 306
293 4 15 11 5 7 2 358 357 355 353 350 344 340 336 332 304 345 351 334 334 239 48 4 78 130 184 5 317 141 341 260 313 317 319 263 314 311 297 355 349 266 337 299 288 303 315
217 89 29 19 21 4 359 354 354 353 349 342 338 333 331 355 264 9 330 312 255 354 25 82 56 322 276 168 165 160 250 198 268 289 223 252 120 253 337 311 276 296 298 294 223 242 282
210 189 160 62 7 356 353 353 349 346 343 338 332 329 318 308 320 335 313 276 5 57 175 59 4 334 328 263 265 240 296 287 322 329 348 324 207 151 237 285 28 333 324 336 317 268 289
220 199 187 196 329 350 350 349 346 342 339 336 328 319 250 309 318 318 295 265 42 321 32 359 311 299 260 13 169 255 286 251 150 301 296 326 309 190 162 9 292 321 334 33 296 302 298
216 201 197 219 276 336 344 344 343 340 337 336 323 289 253 2 324 309 285 42 356 42 0 341 306 270 178 173 260 323 218 6 48 20 327 335 272 119 79 28 324 1 27 351 283 274 266
208 208 202 220 257 325 340 343 344 339 335 334 321 296 56 334 321 292 283 245 61 18 348 320 287 65 321 12 332 335 300 58 75 32 342 339 295 64 127 218 225 231 337 254 222 312 303
205 208 206 222 230 305 345 349 344 342 336 326 283 310 33 346 300 256 281 35 347 21 349 311 324 303 307 339 326 309 291 85 21 84 316 313 222 248 192 207 197 194 235 213 226 257 278
202 203 209 213 191 198 355 355 348 349 339 326 298 287 359 337 275 72 322 40 336 327 255 293 303 285 286 326 304 286 291 61 10 330 289 53 302 282 262 49 10 261 273 285 256 281 249
201 204 204 187 185 180 14 2 358 355 8 327 312 295 142 301 311 182 136 253 226 302 349 337 300 21 346 315 318 302 2 130 45 343 351 4 270 309 264 54 17 233 235 261 295 275 256
198 196 189 180 180 177 210 1 356 354 357 328 307 315 165 248 23 330 344 270 267 174 265 268 283 317 291 274 266 266 281 182 120 275 342 331 246 245 256 283 314 290 281 285 276 269 255
187 184 181 183 183 179 171 4 351 351 347 316 246 66 56 303 119 337 308 308 281 299 163 281 243 60 3 288 311 290 3 345 320 263 221 236 268 262 271 287 305 294 281 271 255 255 252
181 184 183 181 179 178 173 109 353 348 338 277 332 333 172 282 280 265 228 262 274 339 331 175 315 357 344 285 289 301 314 300 266 290 259 220 270 313 298 298 286 282 281 273 258 258 253
179 183 181 181 180 178 179 167 21 358 350 319 108 267 314 305 253 262 259 57 87 23 55 35 356 333 310 305 322 300 294 279 273 267 265 276 284 305 285 293 325 295 269 334 309 281 259
176 179 181 186 186 183 184 173 145 26 356 319 51 316 263 271 224 264 326 336 271 260 276 295 302 292 320 345 313 278 258 253 249 248 237 242 253 264 285 317 258 262 320 312 268 292 18
174 177 181 186 182 186 186 182 178 165 350 329 71 296 290 275 330 303 275 277 288 267 252 252 289 351 330 309 284 298 281 222 242 237 230 229 236 250 248 241 290 299 8 19 22 51 13
174 176 176 175 176 174 185 189 188 193 176 286 228 22 13 321 200 329 270 302 300 305 300 239 184 91 304 269 279 265 290 333 308 311 64 246 233 216 232 252 271 97 31 4 341 116 4
168 172 176 173 178 179 175 182 197 201 196 214 91 45 339 257 296 326 259 306 3 335 283 288 3 332 228 268 259 255 245 252 258 248 172 134 211 227 236 244 281 360 345 340 294 2 10
168 173 174 174 170 163 166 176 192 195 188 186 144 134 131 236 286 258 258 273 283 277 255 331 342 131 269 255 267 282 299 342 310 331 305 268 210 210 217 235 258 354 23 44 347 360 22
166 173 164 161 161 160 151 143 129 129 146 171 140 150 123 218 258 321 283 281 289 295 308 277 272 320 331 295 16 334 321 320 319 296 321 301 349 319 246 237 323 360 43 334 317 290 338